NPSAT1 (44340 NORAD) Tracking and Keplerian Element Data

This shows tracking and keplerian element data for the satellite.

Feedback or suggestion? Click here.




ElementValue
Catalog44340
NameNPSAT1
Epoch Orbit329
Epoch Day198.99375859
Epoch Year2019
RAAN61.9618
Inclination24.0021
Eccentricity0.001179
Argument of Perigee83.9755
Mean Anonmoly276.2047
Mean Motion14.52758248
Decay Rate2.75E-06
L11 44340U 19036B 19198.99375859 .00000275 00000-0 15388-4 0 9990
L22 44340 24.0021 61.9618 0011790 83.9755 276.2047 14.52758248 3290

Live tracking and technical data element details for NPSAT1 (NORAD 44340). NPSAT1 can be tracked NOW for your location showing map with azimuth and elevation plus other details from your city location.

Track the satellite on the map from your city or location and see movement details for azimuth, elevation, latitude, longitude, range, height, and movement on the map or in text.







IsCatalogInMostPopularTable: catalog: 44340, numindb: 5
Update: records affected: 1



GetName: 44340 NPSAT1

Hit Count: updated at: Fri, 19 Jul 2019 07:43:51 GMT